When you browse on this site, cookies collect data to enhance your experience and personalize the content and advertising you see.
Visit our Privacy Policy to learn more. By continuing to use the site, you agree to this use of cookies and data.
  • In Portugal
  • List of Countries
  • For 7 days
  • Water Temperature
  • Weather Map
  • Weather Widgets
  • user-avatar
    Login

    Hourly Weather Shadyki

    Today, 29 February, Saturday

    Time Temperature Precipitation Wind Pressure Humidity
    00:00 -6°C° 0 mm 3 mps 729 mmHg 90%
    01:00 -6°C° 0 mm 3 mps 730 mmHg 90%
    02:00 -7°C° 0 mm 3 mps 730 mmHg 91%
    03:00 -7°C° 0.1 mm 3 mps 730 mmHg 91%
    04:00 -7°C° 0.1 mm 3 mps 731 mmHg 91%
    05:00 -7°C° 0.1 mm 4 mps 731 mmHg 91%
    06:00 -8°C° 0.1 mm 4 mps 731 mmHg 89%
    07:00 -8°C° 0.1 mm 4 mps 731 mmHg 87%
    08:00 -8°C° 0.1 mm 4 mps 731 mmHg 85%
    09:00 -7°C° 0 mm 4 mps 732 mmHg 79%
    10:00 -5°C° 0 mm 4 mps 732 mmHg 74%
    11:00 -5°C° 0 mm 4 mps 732 mmHg 68%
    12:00 -4°C° 0 mm 4 mps 732 mmHg 67%
    13:00 -4°C° 0 mm 4 mps 732 mmHg 66%
    14:00 -3°C° 0 mm 4 mps 733 mmHg 64%
    15:00 -4°C° 0 mm 3 mps 733 mmHg 69%
    16:00 -5°C° 0 mm 3 mps 733 mmHg 74%
    17:00 -4°C° 0 mm 2 mps 733 mmHg 78%
    18:00 -5°C° 0 mm 2 mps 734 mmHg 81%
    19:00 -5°C° 0 mm 2 mps 734 mmHg 84%
    20:00 -5°C° 0 mm 2 mps 734 mmHg 88%
    21:00 -5°C° 0 mm 2 mps 734 mmHg 88%
    22:00 -5°C° 0 mm 2 mps 734 mmHg 89%
    23:00 -5°C° 0 mm 2 mps 734 mmHg 89%

    Tomorrow, 1 March, Sunday

    Time Temperature Precipitation Wind Pressure Humidity
    00:00 -5°C° 0 mm 3 mps 735 mmHg 90%
    01:00 -5°C° 0 mm 3 mps 735 mmHg 90%
    02:00 -5°C° 0 mm 3 mps 735 mmHg 90%
    03:00 -4°C° 0 mm 3 mps 735 mmHg 91%
    04:00 -4°C° 0 mm 3 mps 734 mmHg 91%
    05:00 -4°C° 0 mm 4 mps 734 mmHg 92%
    06:00 -4°C° 0 mm 4 mps 734 mmHg 89%
    07:00 -4°C° 0 mm 5 mps 734 mmHg 87%
    08:00 -4°C° 0 mm 5 mps 734 mmHg 84%
    09:00 -3°C° 0 mm 6 mps 733 mmHg 84%
    10:00 -3°C° 0 mm 6 mps 733 mmHg 85%
    11:00 -2°C° 0 mm 7 mps 733 mmHg 85%
    12:00 -2°C° 0.1 mm 6 mps 733 mmHg 88%
    13:00 -2°C° 0.1 mm 6 mps 732 mmHg 90%
    14:00 -2°C° 0.1 mm 6 mps 732 mmHg 93%
    15:00 -2°C° 0.1 mm 6 mps 732 mmHg 94%
    16:00 -2°C° 0.1 mm 6 mps 732 mmHg 95%
    17:00 -2°C° 0.1 mm 6 mps 732 mmHg 96%
    18:00 -1°C° 0 mm 5 mps 733 mmHg 95%
    19:00 -1°C° 0 mm 5 mps 733 mmHg 95%
    20:00 -1°C° 0 mm 5 mps 733 mmHg 95%
    21:00 -1°C° 0.2 mm 5 mps 733 mmHg 96%
    22:00 -1°C° 0.2 mm 5 mps 733 mmHg 96%
    23:00 -1°C° 0.2 mm 5 mps 733 mmHg 97%

    Day after tomorrow, 2 March, Monday

    Time Temperature Precipitation Wind Pressure Humidity
    00:00 -1°C° 0.6 mm 5 mps 733 mmHg 97%
    01:00 -1°C° 0.6 mm 5 mps 733 mmHg 97%
    02:00 -1°C° 0.6 mm 4 mps 733 mmHg 97%
    03:00 -1°C° 0.5 mm 4 mps 732 mmHg 97%
    04:00 -1°C° 0.5 mm 4 mps 732 mmHg 97%
    05:00 0°C° 0.5 mm 4 mps 732 mmHg 97%
    06:00 0°C° 0.2 mm 4 mps 732 mmHg 97%
    07:00 0°C° 0.2 mm 4 mps 732 mmHg 97%
    08:00 0°C° 0.2 mm 4 mps 732 mmHg 97%
    09:00 0°C° 0.1 mm 4 mps 732 mmHg 97%
    10:00 0°C° 0.1 mm 4 mps 732 mmHg 97%
    11:00 +1°C° 0.1 mm 4 mps 732 mmHg 97%
    12:00 +2°C° 0.1 mm 3 mps 733 mmHg 97%
    13:00 +2°C° 0.1 mm 3 mps 733 mmHg 97%
    14:00 +2°C° 0.1 mm 3 mps 733 mmHg 97%
    15:00 +1°C° 0 mm 3 mps 733 mmHg 96%
    16:00 +1°C° 0 mm 3 mps 733 mmHg 96%
    17:00 +1°C° 0 mm 3 mps 733 mmHg 95%
    18:00 +1°C° 0 mm 3 mps 734 mmHg 96%
    19:00 +2°C° 0 mm 2 mps 734 mmHg 96%
    20:00 +2°C° 0 mm 2 mps 734 mmHg 96%
    21:00 +1°C° 0.1 mm 3 mps 734 mmHg 96%
    22:00 +1°C° 0.1 mm 3 mps 734 mmHg 97%
    23:00 0°C° 0.1 mm 4 mps 734 mmHg 97%

    3 March, Tuesday

    Time Temperature Precipitation Wind Pressure Humidity
    00:00 0°C° 0.1 mm 4 mps 734 mmHg 97%
    01:00 0°C° 0.1 mm 4 mps 734 mmHg 97%
    02:00 -1°C° 0.1 mm 4 mps 733 mmHg 97%
    03:00 0°C° 0.4 mm 3 mps 733 mmHg 97%
    04:00 0°C° 0.4 mm 3 mps 733 mmHg 97%
    05:00 0°C° 0.4 mm 3 mps 732 mmHg 97%
    06:00 0°C° 0.4 mm 3 mps 732 mmHg 97%
    07:00 +1°C° 0.4 mm 3 mps 732 mmHg 97%
    08:00 +1°C° 0.4 mm 3 mps 731 mmHg 97%
    09:00 +1°C° 0.4 mm 3 mps 731 mmHg 97%
    10:00 +2°C° 0.4 mm 3 mps 731 mmHg 97%
    11:00 +2°C° 0.4 mm 3 mps 731 mmHg 97%
    12:00 +2°C° 0.3 mm 3 mps 731 mmHg 97%
    13:00 +2°C° 0.3 mm 3 mps 732 mmHg 97%
    14:00 +2°C° 0.3 mm 3 mps 732 mmHg 96%
    15:00 +2°C° 0 mm 3 mps 733 mmHg 96%
    16:00 +2°C° 0 mm 3 mps 733 mmHg 96%
    17:00 +2°C° 0 mm 3 mps 734 mmHg 95%
    18:00 +2°C° 0 mm 3 mps 734 mmHg 94%
    19:00 +2°C° 0 mm 3 mps 735 mmHg 94%
    20:00 +2°C° 0 mm 3 mps 736 mmHg 93%
    21:00 +1°C° 0 mm 3 mps 736 mmHg 93%
    22:00 0°C° 0 mm 3 mps 737 mmHg 93%
    23:00 -1°C° 0 mm 2 mps 737 mmHg 93%

    4 March, Wednesday

    Time Temperature Precipitation Wind Pressure Humidity
    00:00 -1°C° 0 mm 2 mps 738 mmHg 93%
    01:00 -1°C° 0 mm 2 mps 738 mmHg 94%
    02:00 -2°C° 0 mm 2 mps 739 mmHg 94%
    03:00 0°C° 0 mm 1 mps 739 mmHg 94%
    04:00 0°C° 0 mm 1 mps 739 mmHg 94%
    05:00 0°C° 0 mm 1 mps 739 mmHg 94%
    06:00 +1°C° 0 mm 1 mps 739 mmHg 92%
    07:00 +1°C° 0 mm 1 mps 739 mmHg 91%
    08:00 +2°C° 0 mm 1 mps 739 mmHg 90%
    09:00 +2°C° 0 mm 1 mps 739 mmHg 88%
    10:00 +3°C° 0 mm 1 mps 739 mmHg 87%
    11:00 +3°C° 0 mm 2 mps 739 mmHg 85%
    12:00 +3°C° 0 mm 2 mps 739 mmHg 86%
    13:00 +3°C° 0 mm 2 mps 739 mmHg 86%
    14:00 +3°C° 0 mm 3 mps 738 mmHg 87%
    15:00 +2°C° 0.1 mm 3 mps 738 mmHg 90%
    16:00 +2°C° 0.1 mm 3 mps 738 mmHg 93%
    17:00 0°C° 0.1 mm 4 mps 737 mmHg 96%
    18:00 0°C° 0.2 mm 4 mps 737 mmHg 96%
    19:00 0°C° 0.2 mm 4 mps 737 mmHg 96%
    20:00 0°C° 0.2 mm 4 mps 736 mmHg 97%
    21:00 0°C° 0.6 mm 4 mps 736 mmHg 96%
    22:00 +1°C° 0.6 mm 4 mps 735 mmHg 96%
    23:00 +1°C° 0.6 mm 4 mps 735 mmHg 96%

    5 March, Thursday

    Time Temperature Precipitation Wind Pressure Humidity
    00:00 +1°C° 1 mm 4 mps 735 mmHg 96%
    01:00 +1°C° 1 mm 4 mps 734 mmHg 96%
    02:00 +1°C° 1 mm 4 mps 734 mmHg 97%
    03:00 +1°C° 0.2 mm 4 mps 733 mmHg 97%
    04:00 +1°C° 0.2 mm 4 mps 733 mmHg 97%
    05:00 +2°C° 0.2 mm 3 mps 732 mmHg 97%
    06:00 +3°C° 0 mm 4 mps 732 mmHg 97%
    07:00 +3°C° 0 mm 4 mps 731 mmHg 97%
    08:00 +3°C° 0 mm 4 mps 731 mmHg 97%
    09:00 +4°C° 0 mm 4 mps 731 mmHg 95%
    10:00 +5°C° 0 mm 4 mps 731 mmHg 93%
    11:00 +5°C° 0 mm 4 mps 730 mmHg 92%
    12:00 +6°C° 0 mm 4 mps 730 mmHg 89%
    13:00 +7°C° 0 mm 4 mps 730 mmHg 87%
    14:00 +8°C° 0 mm 4 mps 730 mmHg 84%
    15:00 +7°C° 0 mm 4 mps 729 mmHg 84%
    16:00 +7°C° 0 mm 4 mps 729 mmHg 84%
    17:00 +8°C° 0 mm 3 mps 729 mmHg 85%
    18:00 +7°C° 0 mm 4 mps 729 mmHg 85%
    19:00 +6°C° 0 mm 4 mps 728 mmHg 85%
    20:00 +6°C° 0 mm 4 mps 728 mmHg 85%
    21:00 +6°C° 0.1 mm 4 mps 728 mmHg 86%
    22:00 +6°C° 0.1 mm 4 mps 728 mmHg 87%
    23:00 +6°C° 0.1 mm 4 mps 727 mmHg 87%
    Show more